Content
SEND FEEDBACK

Daily
Averages
Monthly
Summary
United States of America

ASHEVILLE, NORTH CAROLINA


Home > North America > United States > North Carolina
Elevation: 2240 feet     Latitude: 35 36N     Longitude: 082 32W

WEATHER
 
SELECT A DAY
Number of Records: 228,713;   Date Range: 1/1/95 - 9/29/14
 
SHARE

PRINT THIS DATA

[ ← Previous Day ]
WEATHER ALMANAC - SEPTEMBER 2, 2014
[ Next Day → ]
[ °C ]   °F
Weather ElementAverageHighLow
Temperature71.9 °F86 °F (12:54 pm)64.4 °F (6:50 am)
Dewpoint66.5 °F72 °F (8:54 pm)62.6 °F (6:50 am)
Humidity84 %96 % (1:54 am)51 % (12:54 pm)
Barometer30.11 in30.17 in (3:33 am)29.98 in (6:54 pm)
Wind Speed4.3 mph17.3 mph (11:14 pm)
Wind Gust27.6 mph (10:54 pm)
Weather ElementAverage
Visibility8.2 mi
Wind DirectionSSE (163.9 °)

Weather ElementTotal
Precipitation2.70 in
Cooling Degree Days10.2 (Base 65)
Growing Degree Days25.2 (Base 50)
Averaged from 46 records on September 2, 2014
WEATHER CONDITIONS BREAKOUT
WIND DIRECTION BREAKOUT
WEATHER BY HOUR - SEPTEMBER 2, 2014
[ °C ]   °F
Local TimeTemperatureDewpointHumidityBarometerVisibilityWind DirectionWind SpeedGust SpeedPrecipitationEventsConditions
1:54 AM68.0 °F66.9 °F96 %30.08 in10.0 miCalmClear
2:54 AM68.0 °F66.0 °F93 %30.08 in10.0 miNNW (340°)4.6 mphClear
3:33 AM66.0 °F64.9 °F96 %30.17 in2.5 miCalmPartly Cloudy
3:41 AM66.0 °F64.9 °F96 %30.17 in1.8 miCalmScattered Clouds
3:44 AM66.0 °F64.9 °F96 %30.16 in3.0 miCalmScattered Clouds
3:51 AM66.2 °F64.4 °F94 %30.16 in10.0 miCalmMostly Cloudy
3:54 AM66.9 °F64.9 °F93 %30.08 in10.0 miCalmMostly Cloudy
4:07 AM66.9 °F64.9 °F93 %30.16 in10.0 miNNW (340°)5.8 mphMostly Cloudy
4:18 AM66.9 °F64.9 °F93 %30.16 in10.0 miNNW (330°)4.6 mphScattered Clouds
4:54 AM66.9 °F64.9 °F93 %30.09 in10.0 miNNW (340°)4.6 mphClear
5:16 AM66.9 °F64.9 °F93 %30.17 in10.0 miCalmScattered Clouds
5:24 AM66.9 °F64.9 °F93 %30.17 in10.0 miNNW (330°)3.5 mphMostly Cloudy
5:31 AM66.0 °F64.0 °F93 %30.17 in10.0 miNNW (330°)4.6 mphScattered Clouds
5:54 AM66.0 °F64.0 °F93 %30.10 in10.0 miNNW (330°)3.5 mphClear
6:50 AM64.4 °F62.6 °F94 %30.17 in10.0 miCalmScattered Clouds
6:54 AM64.9 °F63.0 °F93 %30.10 in10.0 miCalmScattered Clouds
7:54 AM66.0 °F64.0 °F93 %30.11 in10.0 miCalmClear
8:54 AM70.0 °F66.9 °F90 %30.12 in10.0 miNNW (330°)5.8 mphClear
9:54 AM75.0 °F66.9 °F76 %30.09 in10.0 miNNW (340°)4.6 mphClear
10:54 AM80.1 °F66.9 °F64 %30.09 in10.0 miCalmClear
11:54 AM82.9 °F64.9 °F54 %30.09 in10.0 miNorth (360°)6.9 mphClear
12:54 PM86.0 °F66.0 °F51 %30.07 in10.0 miNNE (20°)8.1 mphPartly Cloudy
1:07 PM80.6 °F66.2 °F61 %30.16 in9.0 miNW (310°)11.5 mphRain-ThunderstormLight Thunderstorms and Rain
1:18 PM75.0 °F69.1 °F82 %30.17 in2.0 miWNW (290°)10.4 mph0.07 inRain-ThunderstormHeavy Thunderstorms and Rain
1:22 PM73.0 °F68.0 °F84 %30.17 in1.2 miWest (280°)9.2 mph0.11 inRain-ThunderstormHeavy Thunderstorms and Rain
1:43 PM70.0 °F66.0 °F87 %30.16 in1.0 miVariable6.9 mph0.56 inRainHeavy Rain
1:50 PM71.6 °F64.4 °F78 %30.16 in2.0 miENE (70°)3.5 mph0.71 inRainHeavy Rain
1:54 PM70.0 °F66.9 °F90 %30.09 in3.0 miCalm0.72 inRainRain
2:00 PM70.0 °F66.0 °F87 %30.16 in1.8 miWNW (300°)4.6 mph0.04 inRainHeavy Rain
2:16 PM72.0 °F66.9 °F84 %30.15 in4.0 miNorth (360°)6.9 mph0.20 inRainLight Rain
2:54 PM75.9 °F69.1 °F79 %30.05 in10.0 miCalm0.20 inMostly Cloudy
3:01 PM78.1 °F70.0 °F76 %30.12 in10.0 miNorth (10°)3.5 mphThunderstormPartly Cloudy
3:19 PM78.1 °F70.0 °F76 %30.12 in10.0 miNNW (340°)5.8 mphMostly Cloudy
3:54 PM77.0 °F69.1 °F76 %30.03 in10.0 miNNW (330°)5.8 mph0.00 inRainLight Rain
4:37 PM75.0 °F70.0 °F84 %30.10 in5.0 miVariable3.5 mph0.03 inRain-ThunderstormLight Rain
4:52 PM77.0 °F69.8 °F78 %30.08 in10.0 miESE (120°)3.5 mph0.03 inMostly Cloudy
4:54 PM77.0 °F71.1 °F82 %30.01 in10.0 miVariable3.5 mph0.03 inMostly Cloudy
5:54 PM80.1 °F69.1 °F69 %29.99 in10.0 miSouth (180°)3.5 mphClear
6:54 PM79.0 °F68.0 °F69 %29.98 in10.0 miCalmClear
7:54 PM77.0 °F71.1 °F82 %30.01 in10.0 miCalmClear
8:54 PM75.0 °F72.0 °F90 %30.01 in10.0 miCalmScattered Clouds
9:54 PM73.9 °F71.1 °F91 %30.02 in10.0 miSE (140°)4.6 mphMostly Cloudy
10:54 PM72.0 °F64.9 °F78 %30.06 in10.0 miNorth (360°)16.1 mph27.6 mphThunderstormMostly Cloudy
11:14 PM70.0 °F63.0 °F78 %30.15 in10.0 miNorth (360°)17.3 mph26.5 mphMostly Cloudy
11:31 PM69.1 °F64.0 °F84 %30.15 in10.0 miNorth (360°)12.7 mphThunderstormMostly Cloudy
11:54 PM68.0 °F64.0 °F87 %30.06 in10.0 miNNW (340°)9.2 mph0.00 inRainLight Rain
Hourly data recorded from KAVL, located miles away from Asheville, North Carolina







STORIES FROM OUR PARTNERS